Iron Mountain, MI

3:21 AM CDT on July 28, 2017 (GMT -0500)
Ford

Weather History for KIMT - June, 2013

Change the Weather History Date:

Thursday, June 6, 2013

  Actual Average Record
Temperature  
Mean Temperature 54 °F -  
Max Temperature 59 °F 74 °F 95 °F (1988)
Min Temperature 48 °F 48 °F 31 °F (1958)
Degree Days  
Heating Degree Days 12    
Growing Degree Days 4 (Base 50)    
Moisture  
Dew Point 43 °F    
Average Humidity 71    
Maximum Humidity 89    
Minimum Humidity 51    
Precipitation  
Precipitation 0.00 in - - ()
Sea Level Pressure  
Sea Level Pressure 30.05 in    
Wind  
Wind Speed 5 mph (NE)    
Max Wind Speed 8 mph    
Max Gust Speed -    
Visibility 10 miles    
Events Rain    
Averages and records for this station are not official NWS values.
T = Trace of Precipitation, MM = Missing Value Source: NWS Daily Summary

Daily Weather History Graph

Daily Weather History Graph

Search for Another Location

Airport or City:

Trip Planner

Search our weather history database for the weather conditions in past years. The results will help you decide how hot, cold, wet, or windy it might be!

Date:

Astronomy

Jun. 06, 2013 Rise Set
Actual Time 5:03 AM CDT 8:39 PM CDT
Civil Twilight 4:25 AM CDT 9:17 PM CDT
Nautical Twilight 3:35 AM CDT 10:07 PM CDT
Astronomical Twilight 2:28 AM CDT 11:14 PM CDT
Moon 3:50 AM CDT (6/6) 6:56 PM CDT (6/6)
Length of Visible Light 16h 51m
Length of Day
15h 35m
Waning Crescent, 3% of the Moon is Illuminated
Jun 6
Waning Crescent
Jun 8
New
Jun 16
First Quarter
Jun 23
Full
Jun 29
Last Quarter

Hourly Weather History & Observations

Time (CDT) Temp. Dew Point Humidity Pressure Visibility Wind Dir Wind Speed Gust Speed Precip Events Conditions
12:54 AM 48.0 °F 45.0 °F 89% 30.07 in 10.0 mi ENE 6.9 mph - 0.00 in Rain Light Rain
1:54 AM 48.9 °F 45.0 °F 86% 30.06 in 10.0 mi ENE 3.5 mph - 0.00 in   Overcast
2:54 AM 48.9 °F 45.0 °F 86% 30.06 in 10.0 mi North 3.5 mph - 0.00 in Rain Light Rain
3:54 AM 48.9 °F 45.0 °F 86% 30.04 in 10.0 mi ENE 3.5 mph - 0.00 in   Overcast
4:54 AM 48.0 °F 45.0 °F 89% 30.06 in 10.0 mi Calm Calm - 0.00 in Rain Light Rain
5:54 AM 48.0 °F 45.0 °F 89% 30.06 in 10.0 mi North 3.5 mph - 0.00 in Rain Light Rain
6:54 AM 48.0 °F 45.0 °F 89% 30.06 in 10.0 mi Variable 3.5 mph - 0.00 in Rain Light Rain
7:54 AM 48.9 °F 45.0 °F 86% 30.05 in 10.0 mi ENE 5.8 mph - 0.00 in Rain Light Rain
8:54 AM 50.0 °F 45.0 °F 83% 30.06 in 10.0 mi ENE 4.6 mph - 0.00 in Rain Light Rain
9:54 AM 53.1 °F 45.0 °F 74% 30.06 in 10.0 mi ENE 8.1 mph - 0.00 in   Mostly Cloudy
10:54 AM 53.1 °F 45.0 °F 74% 30.06 in 10.0 mi NE 4.6 mph - N/A   Overcast
11:54 AM 54.0 °F 42.1 °F 64% 30.06 in 10.0 mi Variable 5.8 mph - N/A   Overcast
12:54 PM 54.0 °F 42.1 °F 64% 30.06 in 10.0 mi NE 4.6 mph - N/A   Overcast
1:54 PM 55.0 °F 42.1 °F 62% 30.05 in 10.0 mi NNE 8.1 mph - N/A   Overcast
2:54 PM 55.0 °F 41.0 °F 59% 30.05 in 10.0 mi NE 4.6 mph - N/A   Overcast
3:54 PM 55.9 °F 39.9 °F 55% 30.04 in 10.0 mi NE 5.8 mph - N/A   Overcast
4:54 PM 59.0 °F 41.0 °F 51% 30.04 in 10.0 mi NNE 6.9 mph - N/A   Overcast
5:54 PM 57.9 °F 39.9 °F 51% 30.04 in 10.0 mi NE 4.6 mph - N/A   Overcast
6:54 PM 57.0 °F 39.0 °F 51% 30.03 in 10.0 mi NE 4.6 mph - N/A   Scattered Clouds
7:54 PM 55.9 °F 37.9 °F 51% 30.03 in 10.0 mi NNE 4.6 mph - N/A   Scattered Clouds
8:54 PM 54.0 °F 39.9 °F 59% 30.02 in 10.0 mi NNW 3.5 mph - N/A   Overcast
9:54 PM 53.1 °F 39.9 °F 61% 30.03 in 10.0 mi Calm Calm - N/A   Overcast
10:54 PM 51.1 °F 41.0 °F 68% 30.02 in 10.0 mi Calm Calm - N/A   Mostly Cloudy
11:54 PM 50.0 °F 42.1 °F 74% 30.03 in 10.0 mi Calm Calm - N/A   Scattered Clouds